Game: Bionic Commando Rearmed 2
Bid: Hype Mode Total: $10,020.95 Goal: $10,000.00

Description
If met, PJ will activate the HYPE MODE glitch during the Bionic Commando Rearmed 2 run, which involves Spencer screaming. A lot.
NameAscDsc Time ReceivedAscDsc AmountAscDsc
N3onalpha 2018-06-29T07:42:23.128832-04:00 $80.00
Gaige (Not from Borderlands) 2018-06-29T07:40:46.674605-04:00 $13.34
theultimo 2018-06-29T07:38:19.346279-04:00 $10.00
Zech Harvey 2018-06-29T07:35:35.117834-04:00 $50.00
Jessie Lockhart 2018-06-29T07:33:35.063156-04:00 $50.00
Lunkorz 2018-06-29T07:27:32.541821-04:00 $5.00
RoyalBlueWizard 2018-06-29T07:21:36.057507-04:00 $25.00
Sacralige 2018-06-29T07:17:22.238954-04:00 $10.00
Zannosuke 2018-06-29T07:16:44.395838-04:00 $25.00
iast 2018-06-29T07:15:10.829453-04:00 $25.00
foolofsound 2018-06-29T07:15:03.999433-04:00 $20.00
LolCamAlpha 2018-06-29T07:13:08.431205-04:00 $25.00
leracos 2018-06-29T07:11:13.817451-04:00 $10.00
N3onalpha 2018-06-29T07:09:38.962134-04:00 $100.00
(Anonymous) 2018-06-29T07:08:30.138210-04:00 $150.00
tn_dom 2018-06-29T06:57:17.858165-04:00 $10.00
Wartog89 2018-06-29T06:31:37.837196-04:00 $150.00
LeFunSeeker 2018-06-29T06:26:15.618325-04:00 $35.00
Jake R 2018-06-29T06:20:37.378890-04:00 $10.00
Grandpa 2018-06-29T06:18:05.796358-04:00 $50.00
Jakuvious 2018-06-29T06:16:50.078415-04:00 $5.00
BaldHairDay 2018-06-29T06:11:09.109364-04:00 $25.00
Alx223 2018-06-29T06:10:31.001886-04:00 $5.00
(Anonymous) 2018-06-29T06:09:44.178951-04:00 $10.00
Mildew 2018-06-29T06:06:40.903664-04:00 $20.00
LeFunSeeker 2018-06-29T05:50:15.401392-04:00 $25.00
Dervis Dogan 2018-06-29T05:31:55.241327-04:00 $5.00
(Anonymous) 2018-06-29T04:28:34.239578-04:00 $5.00
pickles4nickles 2018-06-29T03:58:19.123268-04:00 $10.00
nycz 2018-06-29T03:35:06.058757-04:00 $10.00
platymus 2018-06-29T03:11:55.917931-04:00 $50.00
(Anonymous) 2018-06-29T03:02:28.528245-04:00 $150.00
Iruru 2018-06-29T01:45:02.205849-04:00 $50.00
(Anonymous) 2018-06-29T01:43:52.228417-04:00 $1.00
Jobbo_Fett 2018-06-29T01:13:08.126317-04:00 $50.00
theMadBicyclist 2018-06-29T00:40:57.270691-04:00 $50.00
The Finn 2018-06-29T00:38:34.099128-04:00 $5.00
Jake M 2018-06-29T00:27:35.997960-04:00 $25.00
Minorfffanatic1 2018-06-29T00:16:41.646185-04:00 $11.60
JadeNeko 2018-06-29T00:02:43.837309-04:00 $5.00
(Anonymous) 2018-06-29T00:02:06.621853-04:00 $10.00
SkeletonJelly 2018-06-28T23:54:40.528634-04:00 $20.00
Dan G. 2018-06-28T23:51:12.871916-04:00 $50.00
BrotherLeb 2018-06-28T23:50:28.591277-04:00 $15.00
Eiggy 2018-06-28T23:41:26.941432-04:00 $10.00
Xinrick 2018-06-28T23:36:02.530347-04:00 $5.00
Ben 2018-06-28T23:33:02.708303-04:00 $30.00
KnobbyNobbes 2018-06-28T23:32:17.394731-04:00 $5.01
Tempystral 2018-06-28T23:30:46.109914-04:00 $5.00
Nostson 2018-06-28T23:30:26.885051-04:00 $20.00

|< >|

Back to Bid Index

Back to Main Index

Running on Django with Python
Python code by UraniumAnchor, SMK, and jdeng
CSS by Cool Matty